Elefsis, Greece

4:35 PM EET on December 12, 2017 (GMT +0200)
Elefsis Air Base

Weather History for LGEL - March, 2013

Change the Weather History Date:

Thursday, March 14, 2013

  Actual Average Record
Temperature  
Mean Temperature 62 °F -  
Max Temperature 66 °F 62 °F 69 °F (1999)
Min Temperature 57 °F 46 °F 37 °F (1997)
Degree Days  
Heating Degree Days 4    
Growing Degree Days 12 (Base 50)    
Moisture  
Dew Point 50 °F    
Average Humidity 66    
Maximum Humidity 88    
Minimum Humidity 52    
Precipitation  
Precipitation 0.00 in - - ()
Sea Level Pressure  
Sea Level Pressure 29.46 in    
Wind  
Wind Speed 11 mph ()    
Max Wind Speed 23 mph    
Max Gust Speed 34 mph    
Visibility 6.1 miles    
Events      
Averages and records for this station are not official NWS values.
T = Trace of Precipitation, MM = Missing Value Source: Averaged Metar Reports

Daily Weather History Graph

Daily Weather History Graph

Search for Another Location

Airport or City:

Trip Planner

Search our weather history database for the weather conditions in past years. The results will help you decide how hot, cold, wet, or windy it might be!

Date:

Astronomy

Mar. 14, 2013 Rise Set
Actual Time 6:38 AM EET 6:31 PM EET
Civil Twilight 6:12 AM EET 6:58 PM EET
Nautical Twilight 5:41 AM EET 7:28 PM EET
Astronomical Twilight 5:10 AM EET 7:59 PM EET
Moon 7:44 AM EET (3/14) 9:26 PM EET (3/14)
Length of Visible Light 12h 45m
Length of Day
11h 53m
Waxing Crescent, 7% of the Moon is Illuminated
Mar 14
Waxing Crescent
Mar 19
First Quarter
Mar 27
Full
Apr 3
Last Quarter
Apr 10
New

Hourly Weather History & Observations

Time (EET) Temp. Dew Point Humidity Pressure Visibility Wind Dir Wind Speed Gust Speed Precip Events Conditions
12:50 AM 57.2 °F 53.6 °F 88% 29.71 in 6.2 mi ESE 3.5 mph - N/A   Scattered Clouds
1:50 AM 59.0 °F 53.6 °F 82% 29.65 in 6.2 mi SSE 9.2 mph - N/A   Mostly Cloudy
2:50 AM 59.0 °F 53.6 °F 82% 29.65 in 6.2 mi Calm Calm - N/A   Mostly Cloudy
3:50 AM 59.0 °F 50.0 °F 72% 29.62 in 6.2 mi SSE 13.8 mph - N/A   Mostly Cloudy
4:50 AM 59.0 °F 50.0 °F 72% 29.62 in 6.2 mi SSE 10.4 mph - N/A   Mostly Cloudy
5:20 AM 59.0 °F 50.0 °F 72% 29.62 in 6.2 mi SSE 12.7 mph - N/A   Mostly Cloudy
5:50 AM 59.0 °F 51.8 °F 77% 29.59 in 6.2 mi SSE 13.8 mph - N/A   Scattered Clouds
6:20 AM 59.0 °F 50.0 °F 72% 29.59 in 6.2 mi South 8.1 mph - N/A   Mostly Cloudy
6:50 AM 60.8 °F 50.0 °F 68% 29.59 in 6.2 mi SSE 8.1 mph - N/A   Mostly Cloudy
7:20 AM 60.8 °F 51.8 °F 72% 29.59 in 6.2 mi South 8.1 mph - N/A   Mostly Cloudy
7:50 AM 60.8 °F 51.8 °F 72% 29.59 in 6.2 mi South 8.1 mph - N/A   Mostly Cloudy
8:20 AM 60.8 °F 53.6 °F 77% 29.59 in 6.2 mi South 10.4 mph - N/A   Mostly Cloudy
8:50 AM 60.8 °F 51.8 °F 72% 29.56 in 6.2 mi South 9.2 mph - N/A   Mostly Cloudy
9:20 AM 60.8 °F 51.8 °F 72% 29.56 in 6.2 mi South 6.9 mph - N/A   Mostly Cloudy
9:50 AM 62.6 °F 53.6 °F 72% 29.56 in 6.2 mi SSE 9.2 mph - N/A   Mostly Cloudy
10:20 AM 64.4 °F 50.0 °F 59% 29.56 in 6.2 mi SSE 16.1 mph - N/A   Mostly Cloudy
10:50 AM 64.4 °F 51.8 °F 64% 29.50 in 6.2 mi SSE 17.3 mph - N/A   Mostly Cloudy
11:20 AM 64.4 °F 51.8 °F 64% 29.50 in 6.2 mi SSE 16.1 mph - N/A   Mostly Cloudy
11:50 AM 64.4 °F 50.0 °F 59% 29.47 in 6.2 mi South 16.1 mph 28.8 mph N/A   Mostly Cloudy
12:20 PM 66.2 °F 48.2 °F 52% 29.44 in 6.2 mi SSE 16.1 mph 27.6 mph N/A   Mostly Cloudy
12:50 PM 66.2 °F 48.2 °F 52% 29.44 in 6.2 mi SSE 23.0 mph 34.5 mph N/A   Mostly Cloudy
1:20 PM 66.2 °F 48.2 °F 52% 29.44 in 6.2 mi SSE 21.9 mph 33.4 mph N/A   Mostly Cloudy
1:50 PM 66.2 °F 48.2 °F 52% 29.42 in 6.2 mi SSE 20.7 mph 33.4 mph N/A   Overcast
2:20 PM 64.4 °F 48.2 °F 56% 29.39 in 6.2 mi SSE 19.6 mph 31.1 mph N/A   Overcast
2:50 PM 64.4 °F 48.2 °F 56% 29.39 in 6.2 mi SSE 18.4 mph 29.9 mph N/A   Overcast
3:20 PM 64.4 °F 50.0 °F 59% 29.36 in 6.2 mi SSE 19.6 mph 31.1 mph N/A   Overcast
3:50 PM 62.6 °F 50.0 °F 63% 29.36 in 6.2 mi SSE 18.4 mph 33.4 mph N/A   Overcast
4:20 PM 62.6 °F 50.0 °F 63% 29.36 in 6.2 mi SSE 18.4 mph 29.9 mph N/A   Overcast
4:50 PM 62.6 °F 50.0 °F 63% 29.36 in 6.2 mi SSE 16.1 mph 27.6 mph N/A   Overcast
5:20 PM 62.6 °F 50.0 °F 63% 29.33 in 6.2 mi SE 15.0 mph - N/A   Overcast
5:50 PM 62.6 °F 50.0 °F 63% 29.33 in 6.2 mi SE 16.1 mph 27.6 mph N/A   Overcast
6:20 PM 62.6 °F 50.0 °F 63% 29.30 in 5.6 mi SE 17.3 mph - N/A   Overcast
6:50 PM 62.6 °F 50.0 °F 63% 29.30 in 5.0 mi SE 12.7 mph 24.2 mph N/A   Overcast
7:20 PM 62.6 °F 50.0 °F 63% 29.30 in 5.0 mi SE 12.7 mph 24.2 mph N/A   Overcast
7:50 PM 62.6 °F 53.6 °F 72% 29.30 in 5.0 mi SSE 16.1 mph - N/A   Overcast
8:20 PM 62.6 °F 53.6 °F 72% 29.30 in 5.0 mi SSE 13.8 mph - N/A   Overcast
8:50 PM 62.6 °F 51.8 °F 68% 29.30 in 6.2 mi South 13.8 mph - N/A   Overcast
9:50 PM 59.0 °F 44.6 °F 59% 29.36 in 6.2 mi SW 9.2 mph - N/A   Overcast
10:20 PM 59.0 °F 44.6 °F 59% 29.36 in 6.2 mi SSW 10.4 mph - N/A   Scattered Clouds
10:50 PM 57.2 °F 44.6 °F 63% 29.36 in 6.2 mi SSW 8.1 mph - N/A   Scattered Clouds
11:50 PM 57.2 °F 41.0 °F 55% 29.39 in 6.2 mi SW 10.4 mph - N/A   Scattered Clouds